sat.trackr.live / text

‹ back to catalog

WT 1B

NORAD 44316 · 2019-032G

PAYLOAD ACTIVE UNKNOWN

§ Identity

Operator
Country
PRC
Launch date
2019-06-05
Launch site
YSLA
Launch vehicle
Mass (kg)
RCS (m²)

External: N2YO · Heavens-Above · Gunter

§ Orbital elements

Epoch: 2026-09-15T22:35:15.894816Z

Period
94.19 min
Inclination
44.9714°
Eccentricity
0.0009547
Mean motion
15.28790117 rev/d
Perigee alt
472.9 km
Apogee alt
486.0 km
Semi-major
6,857.6 km
B*
3.6269e-4
RAAN
284.9440°
Arg perigee
45.7439°
Mean anomaly
314.4226°
Rev number
40,096

§ Raw data

WT 1B1 44316U 19032G   26258.94115619  .00010066  00000+0  36269-3 0  99932 44316  44.9714 284.9440 0009547  45.7439 314.4226 15.28790117400969

JSON: /api/v1/satellites/44316 · /tle

For live sub-satellite position, see the globe view (requires WebGL).

§ Visibility from observer

Set your observer location to see the next 7 days of passes ≥ 10°. The values pass through the URL so the page stays shareable.

No JS? Fill the form by hand. The geolocation button needs JavaScript.

§ Radio — SatNOGS DB

ModeDescriptionDownlinkUplink
FM Downlink 401.305 MHz

1 transmitter · refreshed weekly from db.satnogs.org